Regional Weather Roundup
Issued by NWS

Home | Current Version | Previous Version | Graphics & Text | Print | Product List | Glossary On
Versions: 1 2 3 4 5 6 7 8 9 10 11 12 13 14 15 16 17 18 19 20 21 22 23 24 25 26 27 28 29 30 31 32 33 34 35 36 37 38 39 40 41 42 43 44 45 46 47 48 49
000
ASUS45 KBOU 012207
RWRCO

WEATHER ROUNDUP FOR COLORADO
NATIONAL WEATHER SERVICE DENVER/BOULDER CO
400 PM MDT WED OCT 01 2014

NOTE: "FAIR" INDICATES FEW OR NO CLOUDS BELOW 12000 FEET WITH NO
SIGNIFICANT WEATHER AND/OR OBSTRUCTIONS TO VISIBILITY.

COZ001>005-013-030-031-012300-
...NORTHWEST COLORADO...

CITY           SKY/WX    TMP DP  RH WIND       PRES   REMARKS
CRAIG          CLOUDY    41  36  82 W6        30.07R
HAYDEN         CLOUDY    37  34  87 W9        30.05R
MEEKER         RAIN      41  37  86 MISG      30.05R FOG
MOUNT WERNER   NOT AVBL
STEAMBOAT SPGS CLOUDY    41  36  82 W3        30.02S
WALDEN         CLOUDY    36  32  87 CALM      30.02S
$$

COZ006>008-011-012300-
...WEST CENTRAL VALLEYS...

CITY           SKY/WX    TMP DP  RH WIND       PRES   REMARKS
GRAND JUNCTION LGT RAIN  53  46  77 S12       29.97S
MONTROSE       LGT RAIN  48  42  80 N14       30.03R
EAGLE          MOSUNNY   52  39  62 SW15      29.99S
RIFLE          MOSUNNY   52  41  66 SW5       29.98R
DELTA          RAIN      54  46  75 S8        30.00S
NUCLA          PTSUNNY   50  45  81 NW12      30.05R
$$

COZ017>023-064>068-012300-
...SOUTHWEST COLORADO...

CITY           SKY/WX    TMP DP  RH WIND       PRES   REMARKS
DURANGO        MOSUNNY   61  36  39 W25G32    29.99R
CORTEZ         CLOUDY    59  42  53 E5        29.99S
PAGOSA SPRINGS CLOUDY    48  43  81 NW5       30.04R
TELLURIDE      CLOUDY   N/A N/A N/A CALM      30.09F
WOLF CREEK PAS SNOW      30  30 100 SW30G41   30.14R VSB 1/4 WCI  15
$$

COZ009-010-012-014-032>034-037-058>063-012300-
...CENTRAL COLORADO...

CITY           SKY/WX    TMP DP  RH WIND       PRES   REMARKS
ASPEN          PTSUNNY   45  36  70 CALM      30.02S
BUENA VISTA    MOSUNNY   55  25  31 W22       29.97S
COPPER MTN     PTSUNNY   37  30  75 S8        30.12S
BERTHOUD PASS  FOG       27  23  86 MISG      30.12S VSB<1/4
COTTONWOOD PAS MOSUNNY   46  25  42 W22G32    30.04R
GUNNISON       PTSUNNY   48  34  57 S12       30.04S
KREMMLING      PTSUNNY   50  36  57 W7        30.01S
LEADVILLE      CLOUDY    41  25  53 NW14G21   30.03S
MONARCH PASS   FOG       28  28 100 MISG      30.24R VSB<1/4
SALIDA         MOSUNNY   54  31  42 W18G31    30.03F
SUNLIGHT       CLOUDY    36  36 100 CALM      30.12R
WILKERSON PASS NOT AVBL
$$

COZ069>075-012300-
...SAN LUIS VALLEY/SANGRE DE CRISTO MOUNTAINS...

CITY           SKY/WX    TMP DP  RH WIND       PRES   REMARKS
ALAMOSA        PTSUNNY   61  23  23 W14G29    29.94S
LA VETA PASS   MOSUNNY   50  30  46 S13G21    30.05F
SAGUACHE       PTSUNNY   45  39  81 NW17      30.00F
$$

COZ035-036-038>040-012300-
...NORTHERN COLORADO FRONT RANGE...

CITY           SKY/WX    TMP DP  RH WIND       PRES   REMARKS
DENVER INTL AP TSTM      47  44  90 N28G35    29.89R
DMNS CITY PARK   N/A     55  47  73 N9G18     29.87S
AURORA         PTSUNNY   50  47  90 N10       29.89R
FRONT RANGE AP NOT AVBL
ERIE MUNI ARPT PTSUNNY   53  47  83 NE17G26   29.90R
BOULDER MUN AP PTSUNNY   59  43  55 CALM      29.87S
CENTENNIAL     PTSUNNY   52  47  83 SW12      29.90R
BROOMFIELD     PTSUNNY   57  46  67 NW3       29.89F
FORT COLLINS   CLOUDY    48  45  87 N23G33    29.94R
LONGMONT       CLOUDY    56  47  72 NE20      29.91R
$$

COZ041-046-047-076>085-087-088-012300-
...PIKES PEAK/PALMER DIVIDE AND SOUTHERN FOOTHILLS...

CITY           SKY/WX    TMP DP  RH WIND       PRES   REMARKS
COLO. SPRINGS  PTSUNNY   64  32  30 SW13      29.87R
A. F. ACADEMY  PTSUNNY   63  31  29 S16       29.87S
ELLICOTT       NOT AVBL
FALCON         MOSUNNY   60  30  32 S10       29.90S
FORT CARSON    DRIZZLE   63  36  36 W14G29    29.85R
LIMON          CLOUDY    68  34  28 S14G24    29.82F
MONUMENT HILL  CLOUDY    52  36  54 NW18G29   29.93R
TRINIDAD       CLOUDY    71  31  22 NW13      29.82R
$$

COZ042>045-048>051-090-091-012300-
...NORTHEAST COLORADO...

CITY           SKY/WX    TMP DP  RH WIND       PRES   REMARKS
GREELEY ARPT   CLOUDY    45  37  76 N18G29    29.95R
AKRON          MOSUNNY   67  41  38 VRB7      29.82F
BURLINGTON     MOSUNNY   72  36  26 SE7       29.81F
WRAY           MOSUNNY   74  37  26 SE5       29.80S
STERLING       PTSUNNY   70  45  40 NE6       29.79F
HOLYOKE        MOSUNNY   73  45  35 NE5       29.80F
FORT MORGAN    CLOUDY    64  41  42 E9        29.80F
$$

COZ086-089-092>099-012300-
...SOUTHEAST COLORADO...

CITY           SKY/WX    TMP DP  RH WIND       PRES   REMARKS
PUEBLO         MOSUNNY   74  32  21 SE20      29.76F
LA JUNTA       MOSUNNY   76  35  22 SE7       29.77F
LAMAR          SUNNY     77  38  24 SE7       29.75F
SPRINGFIELD      N/A     76  34  21 SE9G18    29.79F
$$



USA.gov is the U.S. government's official web portal to all federal, state and local government web resources and services.